Tweed New Haven Airport
KHVN : now visible

Airfield :











YOU CAN JOIN US ON...

 
LOGIN :

Register | Disclaimer

   EN    FR    IT 

 









Legend :    VFR   Marginal VFR   IFR   Intensive IFR   Very Intensive IFR
Visi :
Ceiling :
>= 8 km
>= 3000ft
5 to 8 km
1000 to 3000 ft
1500m to 5 km
500 to 1000 ft
800 to 1500m
200 to 500 ft
< 800m
< 200 ft
Symbols :   Thunderstorms  Fog  Heavy snow  Heavy precipitations  Wind > 20 kt






- Airport Elevation : 12 ft
- IATA code : HVN


KHVN - Tweed New Haven

CURRENT METAR :
  • 130253Z AUTO 20006KT 10SM FEW120 26/22 A2975 RMK AO2 SLP074 T02560222 50015

EXPIRED METARs :
  • 130153Z VRB03KT 10SM CLR 26/22 A2975 RMK AO2 SLP074 T02560217
  • 130053Z 22004KT 10SM CLR 26/21 A2973 RMK AO2 SLP066 T02610211

TAF N/A
KZBW FIR / North America



MET'MAP, your aeronautical weather chart ! - Copyright ORBIFLY December 2007 - Disclaimer

ORBIFLY MET'MAP TEAM :

Programming & Development : Alexandra Zaïnal
Concept & original design : Baudouin d'Aumeries
Assistance for programming : Marc-Olivier Méhu
Technical & hardware support : Manuel Goepfert

Contact : metmap@orbifly.com




SOURCES & CREDITS :

   NOAA       Earth
Advisory